Weather History for San Jose, CA

Change the Weather History Date:

Tuesday, June 4, 2013

  Actual Average Record
Temperature  
Mean Temperature 64 °F 67 °F  
Max Temperature 73 °F 78 °F 98 °F (1904)
Min Temperature 54 °F 55 °F 38 °F (1902)
Degree Days  
Heating Degree Days 1 1  
Month to date heating degree days 1 4  
Since 1 June heating degree days 1 4  
Since 1 July heating degree days 2060 1990  
Cooling Degree Days 0 3  
Month to date cooling degree days 8 9  
Year to date cooling degree days 75 79  
Since 1 June cooling degree days 8 9  
Growing Degree Days 14 (Base 50)    
Moisture  
Dew Point 52 °F    
Average Humidity 70    
Maximum Humidity 86    
Minimum Humidity 53    
Precipitation  
Precipitation 0.00 in 0.01 in 0.88 in (2011)
Month to date precipitation 0.00 0.04  
Year to date precipitation 2.20 9.84  
Since 1 July precipitation 9.39 14.85  
Sea Level Pressure  
Sea Level Pressure 29.92 in    
Wind  
Wind Speed 7 mph (NW)    
Max Wind Speed 16 mph    
Max Gust Speed 20 mph    
Visibility 10 miles    
Events      
T = Trace of Precipitation, MM = Missing Value Source: NWS Daily Summary

Daily Weather History Graph

Daily Weather History Graph

Search for Another Location

Airport:

Trip Planner

Search our weather history database for the weather conditions in past years. The results will help you decide how hot, cold, wet, or windy it might be!

Date:

Astronomy

Jun. 04, 2013 Rise Set
Actual Time 5:47 AM PDT 8:24 PM PDT
Civil Twilight 5:16 AM PDT 8:55 PM PDT
Nautical Twilight 4:38 AM PDT 9:33 PM PDT
Astronomical Twilight 3:56 AM PDT 10:16 PM PDT
Moon 3:16 AM PDT (6/4) 5:02 PM PDT (6/4)
Length of Visible Light 15h 38m
Length of Day
14h 37m
Waning Crescent, 13% of the Moon is Illuminated
Jun 4
Waning Crescent
Jun 8
New
Jun 16
First Quarter
Jun 23
Full
Jun 29
Last Quarter

Hourly Weather History & Observations

Time (PDT) Temp. Dew Point Humidity Pressure Visibility Wind Dir Wind Speed Gust Speed Precip Events Conditions
12:53 AM 57.9 °F 51.1 °F 78% 29.87 in 10.0 mi NNW 3.5 mph - N/A   Clear
1:53 AM 55.9 °F 50.0 °F 80% 29.87 in 10.0 mi NW 3.5 mph - N/A   Clear
2:53 AM 55.9 °F 51.1 °F 84% 29.87 in 10.0 mi NW 5.8 mph - N/A   Clear
3:53 AM 55.9 °F 51.1 °F 84% 29.87 in 10.0 mi Calm Calm - N/A   Clear
4:53 AM 55.0 °F 50.0 °F 83% 29.88 in 10.0 mi Calm Calm - N/A   Clear
5:53 AM 55.0 °F 51.1 °F 86% 29.88 in 10.0 mi Calm Calm - N/A   Clear
6:53 AM 55.9 °F 48.9 °F 77% 29.90 in 10.0 mi East 3.5 mph - N/A   Clear
7:53 AM 57.9 °F 48.9 °F 72% 29.92 in 10.0 mi SSE 4.6 mph - N/A   Clear
8:53 AM 61.0 °F 50.0 °F 67% 29.93 in 10.0 mi ESE 4.6 mph - N/A   Clear
9:53 AM 63.0 °F 50.0 °F 63% 29.92 in 10.0 mi Calm Calm - N/A   Clear
10:53 AM 69.1 °F 51.1 °F 53% 29.93 in 10.0 mi Variable 3.5 mph - N/A   Clear
11:53 AM 69.1 °F 53.1 °F 57% 29.93 in 10.0 mi WNW 6.9 mph - N/A   Clear
12:53 PM 70.0 °F 54.0 °F 57% 29.93 in 10.0 mi WNW 11.5 mph - N/A   Clear
1:53 PM 72.0 °F 54.0 °F 53% 29.92 in 10.0 mi WNW 12.7 mph 19.6 mph N/A   Clear
2:53 PM 72.0 °F 54.0 °F 53% 29.92 in 10.0 mi WNW 10.4 mph - N/A   Clear
3:53 PM 72.0 °F 54.0 °F 53% 29.92 in 10.0 mi WNW 13.8 mph - N/A   Clear
4:53 PM 71.1 °F 54.0 °F 55% 29.91 in 10.0 mi WNW 13.8 mph - N/A   Clear
5:53 PM 69.1 °F 54.0 °F 58% 29.91 in 10.0 mi NW 13.8 mph - N/A   Clear
6:53 PM 66.9 °F 53.1 °F 61% 29.92 in 10.0 mi WNW 13.8 mph - N/A   Clear
7:53 PM 64.0 °F 53.1 °F 67% 29.93 in 10.0 mi WNW 11.5 mph - N/A   Clear
8:53 PM 61.0 °F 52.0 °F 72% 29.94 in 10.0 mi WNW 10.4 mph - N/A   Clear
9:53 PM 59.0 °F 52.0 °F 78% 29.96 in 10.0 mi WNW 5.8 mph - N/A   Clear
10:53 PM 59.0 °F 51.1 °F 75% 29.97 in 10.0 mi NW 6.9 mph - N/A   Clear
11:53 PM 57.9 °F 51.1 °F 78% 29.98 in 10.0 mi NNW 3.5 mph - N/A   Clear